,,,PA_Meas_PMT16A,,PR_Meas_QMR101_102,,RH_Meas_QMH101,,SR_Meas_QMS101,,TA_Meas_QMH101,,GenWind,,GenWind,
date,time,status,PA,status,PR,status,RH,status,SR,status,TA,status,DirAvg,status,SpdAvg,
2009-06-23, 00:00:04,VALID,1009.21,VALID,0,VALID,89.4043,VALID,0.105969,VALID,23.8676,VALID,165,VALID,0.533984,
2009-06-23, 00:01:04,VALID,1009.19,VALID,0,VALID,89.6179,VALID,0,VALID,23.8481,VALID,207,VALID,0.739062,
2009-06-23, 00:02:04,VALID,1009.17,VALID,0,VALID,89.6941,VALID,0,VALID,23.8091,VALID,221,VALID,0.327344,
2009-06-23, 00:03:04,VALID,1009.17,VALID,0,VALID,89.8009,VALID,0,VALID,23.8091,VALID,230,VALID,0.589844,
2009-06-23, 00:04:04,VALID,1009.18,VALID,0,VALID,89.8695,VALID,0,VALID,23.8481,VALID,246,VALID,0.284766,
2009-06-23, 00:05:04,VALID,1009.2,VALID,0,VALID,89.8619,VALID,0,VALID,23.8676,VALID,300,VALID,0.9375,
2009-06-23, 00:06:04,VALID,1009.16,VALID,0,VALID,89.839,VALID,0.105969,VALID,23.8871,VALID,297,VALID,0.450391,
2009-06-23, 00:07:04,VALID,1009.13,VALID,0,VALID,89.8619,VALID,0.105969,VALID,23.9084,VALID,294,VALID,0.148047,
2009-06-23, 00:08:04,VALID,1009.06,VALID,0,VALID,89.8848,VALID,0.105969,VALID,23.9065,VALID,269,VALID,0.410937,
2009-06-23, 00:09:04,VALID,1009.02,VALID,0,VALID,89.8619,VALID,0.105969,VALID,23.926,VALID,269,VALID,0.0589844,
2009-06-23, 00:10:04,VALID,1008.96,VALID,0,VALID,89.8466,VALID,0.105969,VALID,23.965,VALID,269,VALID,0.113672,
2009-06-23, 00:11:04,VALID,1008.94,VALID,0,VALID,89.8161,VALID,0.105969,VALID,23.9632,VALID,250,VALID,0.239063,
2009-06-23, 00:12:04,VALID,1008.91,VALID,0,VALID,89.7246,VALID,0.105969,VALID,23.9845,VALID,165,VALID,0.482031,
2009-06-23, 00:13:04,VALID,1008.91,VALID,0,VALID,89.6484,VALID,0.105969,VALID,24.004,VALID,154,VALID,0.632422,
2009-06-23, 00:14:04,VALID,1008.9,VALID,0,VALID,89.6636,VALID,0,VALID,24.004,VALID,154,VALID,0.417188,
2009-06-23, 00:15:04,VALID,1008.91,VALID,0,VALID,89.5721,VALID,0.105969,VALID,23.9845,VALID,154,VALID,0.480078,
2009-06-23, 00:16:04,VALID,1008.91,VALID,0,VALID,89.6026,VALID,0.105969,VALID,24.004,VALID,154,VALID,0.162891,
2009-06-23, 00:17:04,VALID,1008.92,VALID,0,VALID,89.6407,VALID,0.105969,VALID,23.9632,VALID,154,VALID,0,
2009-06-23, 00:18:04,VALID,1008.96,VALID,0,VALID,89.7475,VALID,0,VALID,23.9845,VALID,154,VALID,0,
2009-06-23, 00:19:04,VALID,1008.94,VALID,0,VALID,89.8466,VALID,0.105969,VALID,23.9845,VALID,154,VALID,0,
2009-06-23, 00:20:04,VALID,1008.97,VALID,0,VALID,89.9076,VALID,0.105969,VALID,23.9845,VALID,152,VALID,0.301562,
2009-06-23, 00:21:04,VALID,1008.99,VALID,0,VALID,90.0449,VALID,0,VALID,24.004,VALID,120,VALID,0.741797,
2009-06-23, 00:22:04,VALID,1008.98,VALID,0,VALID,90.1212,VALID,0,VALID,24.0235,VALID,125,VALID,1.2625,
2009-06-23, 00:23:04,VALID,1009.02,VALID,0,VALID,90.3042,VALID,0,VALID,24.1014,VALID,116,VALID,1.90156,
2009-06-23, 00:24:04,VALID,1009.02,VALID,0,VALID,90.2584,VALID,0.105969,VALID,24.1599,VALID,105,VALID,2.15039,
2009-06-23, 00:25:04,VALID,1008.99,VALID,0,VALID,89.961,VALID,0.105969,VALID,24.1191,VALID,103,VALID,2.00391,
2009-06-23, 00:26:04,VALID,1008.99,VALID,0,VALID,89.961,VALID,0.105969,VALID,24.1209,VALID,106,VALID,1.89727,
2009-06-23, 00:27:04,VALID,1008.97,VALID,0,VALID,90.1517,VALID,0.105969,VALID,24.1014,VALID,95,VALID,2.12617,
2009-06-23, 00:28:04,VALID,1008.94,VALID,0,VALID,90.3194,VALID,0.105969,VALID,24.0819,VALID,113,VALID,1.60742,
2009-06-23, 00:29:04,VALID,1008.93,VALID,0,VALID,90.4414,VALID,0,VALID,24.0429,VALID,102,VALID,1.32813,
2009-06-23, 00:30:04,VALID,1008.91,VALID,0,VALID,90.5024,VALID,0,VALID,24.0235,VALID,111,VALID,0.915625,
2009-06-23, 00:31:04,VALID,1008.87,VALID,0,VALID,90.5863,VALID,0,VALID,24.004,VALID,96,VALID,1.44453,
2009-06-23, 00:32:04,VALID,1008.9,VALID,0,VALID,90.6473,VALID,0,VALID,23.9845,VALID,122,VALID,0.874609,
2009-06-23, 00:33:04,VALID,1008.89,VALID,0,VALID,90.716,VALID,0,VALID,23.965,VALID,93,VALID,1.18125,
2009-06-23, 00:34:04,VALID,1008.89,VALID,0,VALID,90.7236,VALID,0,VALID,23.9455,VALID,88,VALID,0.910156,
2009-06-23, 00:35:04,VALID,1008.86,VALID,0,VALID,90.7465,VALID,0,VALID,23.9455,VALID,90,VALID,1.2,
2009-06-23, 00:36:04,VALID,1008.83,VALID,0,VALID,90.716,VALID,0.105969,VALID,23.926,VALID,75,VALID,0.852734,
2009-06-23, 00:37:04,VALID,1008.8,VALID,0,VALID,90.7007,VALID,0.105969,VALID,23.926,VALID,97,VALID,0.769141,
2009-06-23, 00:38:04,VALID,1008.8,VALID,0,VALID,90.6245,VALID,0.105969,VALID,23.926,VALID,68,VALID,0.955859,
2009-06-23, 00:39:04,VALID,1008.79,VALID,0,VALID,90.5787,VALID,0.105969,VALID,23.9047,VALID,77,VALID,0.788281,
2009-06-23, 00:40:04,VALID,1008.75,VALID,0,VALID,90.5177,VALID,0,VALID,23.9065,VALID,98,VALID,1.27227,
2009-06-23, 00:41:04,VALID,1008.71,VALID,0,VALID,90.4643,VALID,0.105969,VALID,23.926,VALID,78,VALID,0.637109,
2009-06-23, 00:42:04,VALID,1008.67,VALID,0,VALID,90.3881,VALID,0,VALID,23.9065,VALID,75,VALID,0.728516,
2009-06-23, 00:43:04,VALID,1008.62,VALID,0,VALID,90.3576,VALID,0,VALID,23.8871,VALID,70,VALID,0.487109,
2009-06-23, 00:44:04,VALID,1008.62,VALID,0,VALID,90.327,VALID,0.105969,VALID,23.8871,VALID,72,VALID,0.354688,
2009-06-23, 00:45:04,VALID,1008.6,VALID,0,VALID,90.327,VALID,0,VALID,23.8676,VALID,67,VALID,0.173438,
2009-06-23, 00:46:04,VALID,1008.61,VALID,0,VALID,90.2965,VALID,0,VALID,23.8871,VALID,64,VALID,0.158984,
2009-06-23, 00:47:04,VALID,1008.6,VALID,0,VALID,90.2584,VALID,0.105969,VALID,23.8676,VALID,67,VALID,0.623438,
2009-06-23, 00:48:04,VALID,1008.59,VALID,0,VALID,90.2432,VALID,0,VALID,23.8676,VALID,68,VALID,0.683594,
2009-06-23, 00:49:04,VALID,1008.58,VALID,0,VALID,90.1822,VALID,0.105969,VALID,23.8676,VALID,61,VALID,0.942969,
2009-06-23, 00:50:04,VALID,1008.55,VALID,0,VALID,90.1135,VALID,0.105969,VALID,23.8676,VALID,48,VALID,0.716016,
2009-06-23, 00:51:04,VALID,1008.53,VALID,0,VALID,90.0449,VALID,0.105969,VALID,23.8073,VALID,51,VALID,1.23555,
2009-06-23, 00:52:04,VALID,1008.49,VALID,0,VALID,90.0983,VALID,0.105969,VALID,23.8286,VALID,52,VALID,0.682813,
2009-06-23, 00:53:04,VALID,1008.46,VALID,0,VALID,90.0525,VALID,0,VALID,23.7896,VALID,36,VALID,0.83125,
2009-06-23, 00:54:04,VALID,1008.45,VALID,0,VALID,90.0983,VALID,0.105969,VALID,23.7896,VALID,32,VALID,0.637891,
2009-06-23, 00:55:04,VALID,1008.44,VALID,0,VALID,90.1593,VALID,0.105969,VALID,23.7489,VALID,4,VALID,0.549609,
2009-06-23, 00:56:04,VALID,1008.39,VALID,0,VALID,90.2889,VALID,0,VALID,23.7507,VALID,351,VALID,0.457812,
2009-06-23, 00:57:04,VALID,1008.36,VALID,0,VALID,90.3118,VALID,0.105969,VALID,23.7312,VALID,357,VALID,0.683203,
2009-06-23, 00:58:04,VALID,1008.38,VALID,0,VALID,90.3118,VALID,0.105969,VALID,23.6922,VALID,17,VALID,0.523828,
2009-06-23, 00:59:04,VALID,1008.34,VALID,0,VALID,90.2584,VALID,0.105969,VALID,23.6727,VALID,19,VALID,0.288672,
2009-06-23, 01:00:04,VALID,1008.31,VALID,0,VALID,90.3423,VALID,0.105969,VALID,23.6727,VALID,19,VALID,0.00585938,
2009-06-23, 01:01:04,VALID,1008.28,VALID,0,VALID,90.3728,VALID,0.105969,VALID,23.6532,VALID,19,VALID,0,
2009-06-23, 01:02:04,VALID,1008.26,VALID,0,VALID,90.4186,VALID,0,VALID,23.6143,VALID,49,VALID,0.271875,
2009-06-23, 01:03:04,VALID,1008.22,VALID,0,VALID,90.4872,VALID,0,VALID,23.6161,VALID,73,VALID,0.160156,
2009-06-23, 01:04:04,VALID,1008.19,VALID,0,VALID,90.5863,VALID,0,VALID,23.6161,VALID,36,VALID,0.341406,
2009-06-23, 01:05:04,VALID,1008.19,VALID,0,VALID,90.5634,VALID,0,VALID,23.5966,VALID,22,VALID,0.422266,
2009-06-23, 01:06:04,VALID,1008.13,VALID,0,VALID,90.5406,VALID,0,VALID,23.6161,VALID,22,VALID,0.110156,
2009-06-23, 01:07:04,VALID,1008.16,VALID,0,VALID,90.5482,VALID,0,VALID,23.5771,VALID,22,VALID,0,
2009-06-23, 01:08:04,VALID,1008.15,VALID,0,VALID,90.6321,VALID,0,VALID,23.5771,VALID,22,VALID,0,
2009-06-23, 01:09:04,VALID,1008.17,VALID,0,VALID,90.7236,VALID,0,VALID,23.5576,VALID,22,VALID,0,
2009-06-23, 01:10:04,VALID,1008.21,VALID,0,VALID,90.8075,VALID,0,VALID,23.5576,VALID,22,VALID,0,
2009-06-23, 01:11:04,VALID,1008.2,VALID,0,VALID,90.8456,VALID,0,VALID,23.5186,VALID,22,VALID,0.271875,
2009-06-23, 01:12:04,VALID,1008.18,VALID,0,VALID,90.899,VALID,0,VALID,23.5399,VALID,329,VALID,0.477734,
2009-06-23, 01:13:04,VALID,1008.19,VALID,0,VALID,90.8837,VALID,0,VALID,23.5399,VALID,329,VALID,0.481641,
2009-06-23, 01:14:04,VALID,1008.18,VALID,0,VALID,90.8914,VALID,0,VALID,23.5186,VALID,329,VALID,0.607031,
2009-06-23, 01:15:04,VALID,1008.17,VALID,0,VALID,90.9447,VALID,0,VALID,23.5186,VALID,329,VALID,0.469141,
2009-06-23, 01:16:04,VALID,1008.16,VALID,0,VALID,90.9219,VALID,0,VALID,23.5186,VALID,329,VALID,0.45,
2009-06-23, 01:17:04,VALID,1008.14,VALID,0,VALID,90.9295,VALID,0,VALID,23.4779,VALID,329,VALID,0.123828,
2009-06-23, 01:18:04,VALID,1008.15,VALID,0,VALID,90.9829,VALID,0,VALID,23.4974,VALID,329,VALID,0.0550781,
2009-06-23, 01:19:04,VALID,1008.15,VALID,0,VALID,91.0439,VALID,0,VALID,23.4779,VALID,329,VALID,0,
2009-06-23, 01:20:04,VALID,1008.13,VALID,0,VALID,91.0896,VALID,0,VALID,23.4797,VALID,329,VALID,0,
2009-06-23, 01:21:04,VALID,1008.12,VALID,0,VALID,91.1735,VALID,0.105969,VALID,23.4389,VALID,326,VALID,0.307422,
2009-06-23, 01:22:04,VALID,1008.1,VALID,0,VALID,91.2193,VALID,0,VALID,23.4584,VALID,325,VALID,0.332031,
2009-06-23, 01:23:04,VALID,1008.09,VALID,0,VALID,91.2726,VALID,0.105969,VALID,23.4584,VALID,317,VALID,0.464453,
2009-06-23, 01:24:04,VALID,1008.07,VALID,0,VALID,91.2498,VALID,0,VALID,23.4779,VALID,317,VALID,0.354297,
2009-06-23, 01:25:04,VALID,1008.04,VALID,0,VALID,91.265,VALID,0.105969,VALID,23.4566,VALID,333,VALID,0.477344,
2009-06-23, 01:26:04,VALID,1008.04,VALID,0,VALID,91.2345,VALID,0,VALID,23.4602,VALID,350,VALID,0.646094,
2009-06-23, 01:27:04,VALID,1008.03,VALID,0,VALID,91.265,VALID,0,VALID,23.4194,VALID,11,VALID,0.483984,
2009-06-23, 01:28:04,VALID,1008.01,VALID,0,VALID,91.3489,VALID,0,VALID,23.3805,VALID,25,VALID,0.473437,
2009-06-23, 01:29:04,VALID,1008.03,VALID,0,VALID,91.4175,VALID,0,VALID,23.3415,VALID,73,VALID,0.423047,
2009-06-23, 01:30:04,VALID,1008.03,VALID,0,VALID,91.4862,VALID,0,VALID,23.322,VALID,63,VALID,0.0894531,
2009-06-23, 01:31:04,VALID,1008.03,VALID,0,VALID,91.5777,VALID,0,VALID,23.3026,VALID,63,VALID,0.0523437,
2009-06-23, 01:32:04,VALID,1008.03,VALID,0,VALID,91.6387,VALID,0,VALID,23.322,VALID,63,VALID,0.00234375,
2009-06-23, 01:33:04,VALID,1007.98,VALID,0,VALID,91.6844,VALID,0.105969,VALID,23.2831,VALID,45,VALID,0.0867188,
2009-06-23, 01:34:04,VALID,1007.99,VALID,0,VALID,91.7531,VALID,0.105969,VALID,23.2831,VALID,26,VALID,0.250391,
2009-06-23, 01:35:04,VALID,1007.96,VALID,0,VALID,91.7836,VALID,0,VALID,23.2831,VALID,320,VALID,0,
2009-06-23, 01:36:04,VALID,1007.9,VALID,0,VALID,91.8293,VALID,0.105969,VALID,23.2831,VALID,352,VALID,0.324609,
2009-06-23, 01:37:04,VALID,1007.93,VALID,0,VALID,91.8598,VALID,0,VALID,23.2831,VALID,352,VALID,0,
2009-06-23, 01:38:04,VALID,1007.89,VALID,0,VALID,91.8751,VALID,0.105969,VALID,23.2636,VALID,352,VALID,0.143359,
2009-06-23, 01:39:04,VALID,1007.88,VALID,0,VALID,91.898,VALID,0.105969,VALID,23.2441,VALID,352,VALID,0.191016,
2009-06-23, 01:40:04,VALID,1007.87,VALID,0,VALID,91.9208,VALID,0.105969,VALID,23.2423,VALID,352,VALID,0.419922,
2009-06-23, 01:41:04,VALID,1007.89,VALID,0,VALID,91.959,VALID,0.105969,VALID,23.2034,VALID,353,VALID,0.297266,
2009-06-23, 01:42:04,VALID,1007.9,VALID,0,VALID,91.959,VALID,0.105969,VALID,23.2051,VALID,353,VALID,0.216797,
2009-06-23, 01:43:04,VALID,1007.91,VALID,0,VALID,91.9971,VALID,0,VALID,23.2051,VALID,353,VALID,0,
2009-06-23, 01:44:04,VALID,1007.95,VALID,0,VALID,92.0123,VALID,0.105969,VALID,23.1857,VALID,353,VALID,0.149609,
2009-06-23, 01:45:04,VALID,1007.98,VALID,0,VALID,92.0428,VALID,0,VALID,23.1662,VALID,352,VALID,0.0253906,
2009-06-23, 01:46:04,VALID,1007.97,VALID,0,VALID,92.081,VALID,0,VALID,23.1662,VALID,352,VALID,0,
2009-06-23, 01:47:04,VALID,1007.98,VALID,0,VALID,92.1115,VALID,0.105969,VALID,23.1662,VALID,352,VALID,0,
2009-06-23, 01:48:04,VALID,1008.02,VALID,0,VALID,92.1191,VALID,0,VALID,23.1467,VALID,352,VALID,0.00429688,
2009-06-23, 01:49:04,VALID,1008.01,VALID,0,VALID,92.1267,VALID,0.105969,VALID,23.1467,VALID,352,VALID,0,
2009-06-23, 01:50:04,VALID,1008,VALID,0,VALID,92.1344,VALID,0,VALID,23.1272,VALID,352,VALID,0,
2009-06-23, 01:51:04,VALID,1007.97,VALID,0,VALID,92.1267,VALID,0,VALID,23.129,VALID,57,VALID,0.147656,
2009-06-23, 01:52:04,VALID,1007.97,VALID,0,VALID,92.1191,VALID,0.105969,VALID,23.1077,VALID,57,VALID,0,
2009-06-23, 01:53:04,VALID,1007.96,VALID,0,VALID,92.1344,VALID,0,VALID,23.0883,VALID,57,VALID,0,
2009-06-23, 01:54:04,VALID,1007.94,VALID,0,VALID,92.1115,VALID,0,VALID,23.0883,VALID,56,VALID,0,
2009-06-23, 01:55:04,VALID,1007.94,VALID,0,VALID,92.1191,VALID,0,VALID,23.0688,VALID,47,VALID,0.0730469,
2009-06-23, 01:56:04,VALID,1007.93,VALID,0,VALID,92.1344,VALID,0,VALID,23.0883,VALID,47,VALID,0,
2009-06-23, 01:57:04,VALID,1007.93,VALID,0,VALID,92.1496,VALID,0,VALID,23.1095,VALID,47,VALID,0,
2009-06-23, 01:58:04,VALID,1007.92,VALID,0,VALID,92.1801,VALID,0.105969,VALID,23.1077,VALID,47,VALID,0,
2009-06-23, 01:59:04,VALID,1007.92,VALID,0,VALID,92.1954,VALID,0,VALID,23.0883,VALID,57,VALID,0.294922,
2009-06-23, 02:00:04,VALID,1007.93,VALID,0,VALID,92.203,VALID,0,VALID,23.0688,VALID,71,VALID,0.424219,
2009-06-23, 02:01:04,VALID,1007.92,VALID,0,VALID,92.1877,VALID,0.105969,VALID,23.0688,VALID,71,VALID,0.0277344,
2009-06-23, 02:02:04,VALID,1007.93,VALID,0,VALID,92.1877,VALID,0,VALID,23.0883,VALID,71,VALID,0.141797,
2009-06-23, 02:03:04,VALID,1007.91,VALID,0,VALID,92.2106,VALID,0.105969,VALID,23.0883,VALID,71,VALID,0.00820312,
2009-06-23, 02:04:04,VALID,1007.9,VALID,0,VALID,92.203,VALID,0,VALID,23.0883,VALID,71,VALID,0.172656,
2009-06-23, 02:05:04,VALID,1007.9,VALID,0,VALID,92.1954,VALID,0,VALID,23.09,VALID,71,VALID,0.156641,
2009-06-23, 02:06:04,VALID,1007.9,VALID,0,VALID,92.2182,VALID,0,VALID,23.0883,VALID,71,VALID,0,
2009-06-23, 02:07:04,VALID,1007.9,VALID,0,VALID,92.2182,VALID,0,VALID,23.0883,VALID,71,VALID,0,
2009-06-23, 02:08:04,VALID,1007.9,VALID,0,VALID,92.1954,VALID,0,VALID,23.129,VALID,71,VALID,0.384375,
2009-06-23, 02:09:04,VALID,1007.89,VALID,0,VALID,92.2106,VALID,0,VALID,23.1272,VALID,71,VALID,0.260547,
2009-06-23, 02:10:04,VALID,1007.89,VALID,0,VALID,92.2182,VALID,0,VALID,23.1272,VALID,71,VALID,0.214844,
2009-06-23, 02:11:04,VALID,1007.87,VALID,0,VALID,92.2106,VALID,0,VALID,23.1077,VALID,71,VALID,0,
2009-06-23, 02:12:04,VALID,1007.89,VALID,0,VALID,92.1954,VALID,0,VALID,23.1077,VALID,71,VALID,0,
2009-06-23, 02:13:04,VALID,1007.87,VALID,0,VALID,92.2182,VALID,0,VALID,23.1077,VALID,71,VALID,0,
2009-06-23, 02:14:04,VALID,1007.82,VALID,0,VALID,92.2106,VALID,0,VALID,23.129,VALID,102,VALID,0.495703,
2009-06-23, 02:15:04,VALID,1007.84,VALID,0,VALID,92.1954,VALID,0,VALID,23.1272,VALID,99,VALID,0.565234,
2009-06-23, 02:16:04,VALID,1007.84,VALID,0,VALID,92.2259,VALID,0,VALID,23.1485,VALID,99,VALID,0.265234,
2009-06-23, 02:17:04,VALID,1007.81,VALID,0,VALID,92.1954,VALID,0,VALID,23.1272,VALID,91,VALID,0.0175781,
2009-06-23, 02:18:04,VALID,1007.82,VALID,0,VALID,92.1954,VALID,0,VALID,23.1679,VALID,91,VALID,0,
2009-06-23, 02:19:04,VALID,1007.8,VALID,0,VALID,92.1877,VALID,0,VALID,23.1467,VALID,91,VALID,0,
2009-06-23, 02:20:04,VALID,1007.82,VALID,0,VALID,92.1877,VALID,0,VALID,23.1467,VALID,91,VALID,0,
2009-06-23, 02:21:04,VALID,1007.8,VALID,0,VALID,92.1572,VALID,0,VALID,23.1662,VALID,91,VALID,0.220313,
2009-06-23, 02:22:04,VALID,1007.78,VALID,0,VALID,92.1191,VALID,0.105969,VALID,23.1662,VALID,91,VALID,0.404297,
2009-06-23, 02:23:04,VALID,1007.81,VALID,0,VALID,92.1267,VALID,0,VALID,23.2051,VALID,101,VALID,0.473437,
2009-06-23, 02:24:04,VALID,1007.77,VALID,0,VALID,92.1039,VALID,0,VALID,23.2246,VALID,101,VALID,0.592578,
2009-06-23, 02:25:04,VALID,1007.77,VALID,0,VALID,92.0276,VALID,0,VALID,23.2246,VALID,96,VALID,0.527344,
2009-06-23, 02:26:04,VALID,1007.76,VALID,0,VALID,92.0047,VALID,0,VALID,23.2246,VALID,79,VALID,0.479297,
2009-06-23, 02:27:04,VALID,1007.73,VALID,0,VALID,91.9742,VALID,0,VALID,23.2654,VALID,79,VALID,0.139453,
2009-06-23, 02:28:04,VALID,1007.76,VALID,0,VALID,91.9437,VALID,0,VALID,23.2441,VALID,78,VALID,0.211328,
2009-06-23, 02:29:04,VALID,1007.76,VALID,0,VALID,91.9056,VALID,0,VALID,23.2654,VALID,77,VALID,0.2625,
2009-06-23, 02:30:04,VALID,1007.73,VALID,0,VALID,91.9208,VALID,0.105969,VALID,23.2636,VALID,66,VALID,0.0855469,
2009-06-23, 02:31:04,VALID,1007.72,VALID,0,VALID,91.9208,VALID,0,VALID,23.2831,VALID,66,VALID,0,
2009-06-23, 02:32:04,VALID,1007.71,VALID,0,VALID,91.9132,VALID,0,VALID,23.2441,VALID,66,VALID,0,
2009-06-23, 02:33:04,VALID,1007.67,VALID,0,VALID,91.898,VALID,0,VALID,23.2636,VALID,66,VALID,0,
2009-06-23, 02:34:04,VALID,1007.67,VALID,0,VALID,91.9208,VALID,0,VALID,23.2246,VALID,66,VALID,0.378516,
2009-06-23, 02:35:04,VALID,1007.65,VALID,0,VALID,91.9208,VALID,0.105969,VALID,23.2459,VALID,74,VALID,0.764063,
2009-06-23, 02:36:04,VALID,1007.63,VALID,0,VALID,91.9513,VALID,0,VALID,23.2246,VALID,76,VALID,0.726953,
2009-06-23, 02:37:04,VALID,1007.64,VALID,0,VALID,91.9437,VALID,0,VALID,23.2246,VALID,75,VALID,0.648438,
2009-06-23, 02:38:04,VALID,1007.64,VALID,0,VALID,91.9513,VALID,0,VALID,23.2246,VALID,75,VALID,0.647656,
2009-06-23, 02:39:04,VALID,1007.64,VALID,0,VALID,91.9361,VALID,0,VALID,23.2246,VALID,69,VALID,0.723047,
2009-06-23, 02:40:04,VALID,1007.64,VALID,0,VALID,91.9361,VALID,0,VALID,23.2459,VALID,81,VALID,0.501562,
2009-06-23, 02:41:04,VALID,1007.65,VALID,0,VALID,91.9513,VALID,0,VALID,23.2459,VALID,81,VALID,0.594141,
2009-06-23, 02:42:04,VALID,1007.67,VALID,0,VALID,91.9513,VALID,0,VALID,23.2246,VALID,57,VALID,0.623047,
2009-06-23, 02:43:04,VALID,1007.66,VALID,0,VALID,91.9132,VALID,0,VALID,23.2459,VALID,58,VALID,0.85,
2009-06-23, 02:44:04,VALID,1007.66,VALID,0,VALID,91.9132,VALID,0,VALID,23.2441,VALID,60,VALID,0.415234,
2009-06-23, 02:45:04,VALID,1007.65,VALID,0,VALID,91.8903,VALID,0,VALID,23.2441,VALID,57,VALID,0.347656,
2009-06-23, 02:46:04,VALID,1007.63,VALID,0,VALID,91.8751,VALID,0,VALID,23.2654,VALID,63,VALID,0.780078,
2009-06-23, 02:47:04,VALID,1007.65,VALID,0,VALID,91.8522,VALID,0,VALID,23.2654,VALID,64,VALID,0.516797,
2009-06-23, 02:48:04,VALID,1007.64,VALID,0,VALID,91.7988,VALID,0,VALID,23.2848,VALID,64,VALID,0.438672,
2009-06-23, 02:49:04,VALID,1007.64,VALID,0,VALID,91.7988,VALID,0,VALID,23.2636,VALID,50,VALID,0.615234,
2009-06-23, 02:50:04,VALID,1007.65,VALID,0,VALID,91.7759,VALID,0,VALID,23.2636,VALID,77,VALID,0.856641,
2009-06-23, 02:51:04,VALID,1007.63,VALID,0,VALID,91.7759,VALID,0,VALID,23.2636,VALID,85,VALID,0.804688,
2009-06-23, 02:52:04,VALID,1007.64,VALID,0,VALID,91.7454,VALID,0,VALID,23.2813,VALID,59,VALID,0.544922,
2009-06-23, 02:53:04,VALID,1007.64,VALID,0,VALID,91.7149,VALID,0,VALID,23.3238,VALID,73,VALID,0.913672,
2009-06-23, 02:54:04,VALID,1007.63,VALID,0,VALID,91.6768,VALID,0,VALID,23.3415,VALID,75,VALID,0.466406,
2009-06-23, 02:55:04,VALID,1007.63,VALID,0,VALID,91.6234,VALID,0,VALID,23.3415,VALID,87,VALID,0.368359,
2009-06-23, 02:56:04,VALID,1007.65,VALID,0,VALID,91.5929,VALID,0,VALID,23.3823,VALID,87,VALID,0.405859,
2009-06-23, 02:57:04,VALID,1007.67,VALID,0,VALID,91.5395,VALID,0,VALID,23.3805,VALID,87,VALID,0.316406,
2009-06-23, 02:58:04,VALID,1007.65,VALID,0,VALID,91.5014,VALID,0,VALID,23.3805,VALID,87,VALID,0.466016,
2009-06-23, 02:59:04,VALID,1007.67,VALID,0,VALID,91.4785,VALID,0.105969,VALID,23.4,VALID,87,VALID,0.164453,
2009-06-23, 03:00:04,VALID,1007.7,VALID,0,VALID,91.4557,VALID,0,VALID,23.4,VALID,87,VALID,0.0308594,
2009-06-23, 03:01:04,VALID,1007.72,VALID,0,VALID,91.4404,VALID,0,VALID,23.4,VALID,87,VALID,0.00117188,
2009-06-23, 03:02:04,VALID,1007.71,VALID,0,VALID,91.4099,VALID,0,VALID,23.4017,VALID,87,VALID,0,
2009-06-23, 03:03:04,VALID,1007.69,VALID,0,VALID,91.387,VALID,0,VALID,23.3823,VALID,87,VALID,0,
2009-06-23, 03:04:04,VALID,1007.73,VALID,0,VALID,91.3947,VALID,0,VALID,23.4017,VALID,87,VALID,0.00234375,
2009-06-23, 03:05:04,VALID,1007.69,VALID,0,VALID,91.3642,VALID,0,VALID,23.4017,VALID,87,VALID,0,
2009-06-23, 03:06:04,VALID,1007.72,VALID,0,VALID,91.387,VALID,0,VALID,23.4017,VALID,87,VALID,0.0960938,
2009-06-23, 03:07:04,VALID,1007.69,VALID,0,VALID,91.387,VALID,0,VALID,23.4017,VALID,344,VALID,0.585156,
2009-06-23, 03:08:05,VALID,1007.69,VALID,0,VALID,91.387,VALID,0,VALID,23.4212,VALID,337,VALID,0.424609,
2009-06-23, 03:09:05,VALID,1007.71,VALID,0,VALID,91.3642,VALID,0,VALID,23.4425,VALID,329,VALID,0.365625,
2009-06-23, 03:10:05,VALID,1007.7,VALID,0,VALID,91.3565,VALID,0,VALID,23.4407,VALID,322,VALID,0.463672,
2009-06-23, 03:11:05,VALID,1007.71,VALID,0,VALID,91.3413,VALID,0,VALID,23.4407,VALID,332,VALID,0.164844,
2009-06-23, 03:12:05,VALID,1007.69,VALID,0,VALID,91.3565,VALID,0,VALID,23.4602,VALID,319,VALID,0.264062,
2009-06-23, 03:13:05,VALID,1007.71,VALID,0,VALID,91.3565,VALID,0,VALID,23.4407,VALID,311,VALID,0.255469,
2009-06-23, 03:14:05,VALID,1007.7,VALID,0,VALID,91.3336,VALID,0,VALID,23.4407,VALID,311,VALID,0,
2009-06-23, 03:15:05,VALID,1007.7,VALID,0,VALID,91.3336,VALID,0,VALID,23.462,VALID,311,VALID,0,
2009-06-23, 03:16:05,VALID,1007.71,VALID,0,VALID,91.3565,VALID,0,VALID,23.4212,VALID,311,VALID,0,
2009-06-23, 03:17:05,VALID,1007.72,VALID,0,VALID,91.4099,VALID,0,VALID,23.4,VALID,311,VALID,0,
2009-06-23, 03:18:05,VALID,1007.69,VALID,0,VALID,91.4862,VALID,0,VALID,23.3805,VALID,311,VALID,0,
2009-06-23, 03:19:05,VALID,1007.66,VALID,0,VALID,91.5548,VALID,0,VALID,23.3823,VALID,311,VALID,0,
2009-06-23, 03:20:05,VALID,1007.64,VALID,0,VALID,91.6616,VALID,0,VALID,23.3823,VALID,311,VALID,0,
2009-06-23, 03:21:05,VALID,1007.64,VALID,0,VALID,91.7454,VALID,0,VALID,23.361,VALID,311,VALID,0,
2009-06-23, 03:22:05,VALID,1007.63,VALID,0,VALID,91.8293,VALID,0.105969,VALID,23.3628,VALID,311,VALID,0,
2009-06-23, 03:23:05,VALID,1007.63,VALID,0,VALID,91.898,VALID,0,VALID,23.3415,VALID,311,VALID,0,
2009-06-23, 03:24:05,VALID,1007.63,VALID,0,VALID,91.9513,VALID,0.105969,VALID,23.3415,VALID,311,VALID,0,
2009-06-23, 03:25:05,VALID,1007.63,VALID,0,VALID,92.02,VALID,0,VALID,23.361,VALID,311,VALID,0,
2009-06-23, 03:26:05,VALID,1007.59,VALID,0,VALID,92.0581,VALID,0,VALID,23.361,VALID,311,VALID,0,
2009-06-23, 03:27:05,VALID,1007.57,VALID,0,VALID,92.0733,VALID,0.105969,VALID,23.361,VALID,38,VALID,0,
2009-06-23, 03:28:05,VALID,1007.57,VALID,0,VALID,92.0657,VALID,0,VALID,23.3415,VALID,46,VALID,0,
2009-06-23, 03:29:05,VALID,1007.55,VALID,0,VALID,92.1039,VALID,0.105969,VALID,23.361,VALID,46,VALID,0,
2009-06-23, 03:30:05,VALID,1007.51,VALID,0,VALID,92.1344,VALID,0,VALID,23.361,VALID,46,VALID,0,
2009-06-23, 03:31:05,VALID,1007.49,VALID,0,VALID,92.1496,VALID,0.105969,VALID,23.361,VALID,341,VALID,0,
2009-06-23, 03:32:05,VALID,1007.5,VALID,0,VALID,92.1801,VALID,0,VALID,23.3415,VALID,336,VALID,0,
2009-06-23, 03:33:05,VALID,1007.46,VALID,0,VALID,92.1877,VALID,0,VALID,23.3415,VALID,354,VALID,0,
2009-06-23, 03:34:05,VALID,1007.46,VALID,0,VALID,92.203,VALID,0,VALID,23.3415,VALID,34,VALID,0,
2009-06-23, 03:35:05,VALID,1007.47,VALID,0,VALID,92.2335,VALID,0,VALID,23.3415,VALID,34,VALID,0,
2009-06-23, 03:36:05,VALID,1007.45,VALID,0,VALID,92.2564,VALID,0,VALID,23.3628,VALID,34,VALID,0,
2009-06-23, 03:37:05,VALID,1007.46,VALID,0,VALID,92.2716,VALID,0,VALID,23.3415,VALID,35,VALID,0,
2009-06-23, 03:38:05,VALID,1007.44,VALID,0,VALID,92.264,VALID,0,VALID,23.3415,VALID,35,VALID,0,
2009-06-23, 03:39:05,VALID,1007.42,VALID,0,VALID,92.2716,VALID,0,VALID,23.3415,VALID,35,VALID,0,
2009-06-23, 03:40:05,VALID,1007.43,VALID,0,VALID,92.2792,VALID,0.105969,VALID,23.3398,VALID,35,VALID,0,
2009-06-23, 03:41:05,VALID,1007.38,VALID,0,VALID,92.2869,VALID,0.105969,VALID,23.3415,VALID,35,VALID,0,
2009-06-23, 03:42:05,VALID,1007.36,VALID,0,VALID,92.3097,VALID,0,VALID,23.3415,VALID,11,VALID,0,
2009-06-23, 03:43:05,VALID,1007.33,VALID,0,VALID,92.3402,VALID,0.105969,VALID,23.361,VALID,342,VALID,0,
2009-06-23, 03:44:05,VALID,1007.32,VALID,0,VALID,92.3708,VALID,0.105969,VALID,23.4017,VALID,342,VALID,0,
2009-06-23, 03:45:05,VALID,1007.33,VALID,0,VALID,92.3936,VALID,0,VALID,23.4,VALID,327,VALID,0,